Retour au catalogue

WEINA 1B

ActifScienceLEO
NORAD 43279·PAYLOAD·🇨🇳 China

Lancé Apr 10, 2018 depuis Jiuquan Satellite Launch Center

Loading…

Prochains Passages (prochaines 24 heures)

TLE

FraisSource: Space-Track

Époque: Sep 14, 2026, 15:28 UTC

1 43279U 18034E   26257.64470154 -.00000032  00000-0  77634-4 0  9991
2 43279  63.3932 221.7198 0283014   8.0910 352.4540 13.45375977414248

Suivez WEINA 1B en temps réel avec AllMySat

Download on the App Store